Regional Weather Roundup
Issued by NWS Sioux Falls, SD

Home | Current Version | Previous Version | Text Only | Print | Product List | Glossary Off
Versions: 1 2 3 4 5 6 7 8 9 10 11 12 13 14 15 16 17 18 19 20 21 22 23 24 25 26 27 28 29 30 31 32 33 34 35 36 37 38 39 40 41 42 43 44 45 46 47 48 49 50

000
ASUS43 KFSD 281410
RWRFSD

WEATHER ROUNDUP FOR SE SOUTH DAKOTA/SW MINNESOTA/NW IOWA
NATIONAL WEATHER SERVICE SIOUX FALLS SD
900 AM CDT FRI AUG 28 2015

NOTE: "FAIR" INDICATES FEW OR NO CLOUDS BELOW 12,000 FEET WITH NO
SIGNIFICANT WEATHER AND OR OBSTRUCTIONS TO VISIBILITY.


SDZ038>040-050-052>070-281500-
SOUTHEAST SOUTH DAKOTA

CITY           SKY/WX    TMP DP  RH WIND       PRES   REMARKS
BROOKINGS      PTSUNNY   66  61  82 NE8       29.97S
CHAMBERLAIN    CLOUDY    65  65  98 NE3       29.95R
HURON          MOSUNNY   67  64  90 E7        29.93S
MADISON        PTSUNNY   64  64 100 E9        29.95R
MITCHELL       CLOUDY    67  65  93 NE7       29.93R
SIOUX FALLS    CLOUDY    65  63  93 E9        29.92R
WINNER         CLOUDY    67  65  93 NW7       29.95S
YANKTON        CLOUDY    64  63  94 N13       29.87R
$$

MNZ071-072-080-081-089-090-097-098-281500-
SOUTHWEST MINNESOTA

CITY           SKY/WX    TMP DP  RH WIND       PRES   REMARKS
FAIRMONT       CLOUDY    63  57  82 E9        29.95F
JACKSON        LGT RAIN  63  63 100 E9        29.96S
LUVERNE        DRIZZLE   64  63  94 E10       29.92F
MARSHALL       PTSUNNY   64  59  82 SE6       29.97S
MONTEVIDEO     PTSUNNY   66  66 100 CALM      29.99F
PIPESTONE      PTSUNNY   66  63  88 E12       29.94F
REDWOOD FALLS  PTSUNNY   65  63  93 SE8       29.96S
TRACY          PTSUNNY   66  64  91 E7        29.97S
WINDOM         CLOUDY    64  63  94 E8        29.96F
WORTHINGTON    PTSUNNY   63  61  94 E9        29.94F
$$

IAZ001>003-012>014-020>022-031-032-NEZ013-014-SDZ071-281500-
NORTHWEST IOWA

CITY           SKY/WX    TMP DP  RH WIND       PRES   REMARKS
CHEROKEE       RAIN      64  64 100 E9        29.86S
DENISON        CLOUDY    66  64  94 S17G30    29.81S
ESTHERVILLE    RAIN      63  62  97 E14       29.95R FOG
LE MARS        LGT RAIN  64  64 100 E10G16    29.85S
ORANGE CITY    DRIZZLE   64  63  94 E7        29.87S
SHELDON        PTSUNNY   64  63  94 E13G22    29.88S FOG
SIOUX CITY     CLOUDY    66  63  90 E8        29.81S
SPENCER        RAIN      65  62  90 E17       29.91F FOG
STORM LAKE     CLOUDY    63  63 100 SE12G18   29.87S FOG
$$

ABBREVIATIONS USED IN REMARKS
   TC - TEMPERATURE IN CELSIUS
  WCI - WIND CHILL INDEX
   HX - HEAT INDEX
  VSB - VISIBILITY



USA.gov is the U.S. government's official web portal to all federal, state and local government web resources and services.